FW4701 Weather Reports


Display with metric or nautical units.
time (UTC)temp
F
wind
direction
speed
MPH
gust
MPH
rain 1hr
in
rain 24hr
in
rain mn
in
humidity
%
barometer
mb
20260504035507 60 186 2.0 7.0 0.00 0.00 0.00 60 1005.7
20260504035005 60 196 3.0 7.0 0.00 0.00 0.00 60 1005.7
20260504034534 63 119 1.0 3.0 0.00 0.00 0.00 50 1017.1
20260504034517 60 182 3.0 7.0 0.00 0.00 0.00 60 1005.8
20260504034007 60 181 2.0 6.0 0.00 0.00 0.00 60 1005.9
20260504033507 60 195 3.0 6.0 0.00 0.00 0.00 59 1005.9
20260504033037 63 121 0.0 2.0 0.00 0.00 0.00 50 1017.1
20260504033020 60 214 2.0 5.0 0.00 0.00 0.00 59 1006.0
20260504032511 60 188 1.0 5.0 0.00 0.00 0.00 59 1006.1
20260504032009 61 179 2.0 5.0 0.00 0.00 0.00 59 1006.1
20260504031529 64 119 0.0 2.0 0.00 0.00 0.00 48 1016.8
20260504031526 61 175 1.0 5.0 0.00 0.00 0.00 58 1006.2
20260504031009 61 205 1.0 5.0 0.00 0.00 0.00 58 1006.2
20260504030503 61 157 0.0 4.0 0.00 0.00 0.00 58 1006.2
20260504030027 64 121 0.0 3.0 0.00 0.00 0.00 48 1016.7
20260504030010 61 217 1.0 4.0 0.00 0.00 0.00 58 1006.2
20260504025503 61 190 2.0 4.0 0.00 0.00 0.00 57 1006.2
20260504025004 61 200 2.0 5.0 0.00 0.00 0.00 57 1006.3
20260504024524 65 124 0.0 1.0 0.00 0.00 0.00 47 1016.9
20260504024511 62 205 0.0 5.0 0.00 0.00 0.00 56 1006.3
20260504024003 62 186 2.0 7.0 0.00 0.00 0.00 56 1006.2
20260504023504 62 175 2.0 7.0 0.00 0.00 0.00 56 1006.1
20260504023027 66 124 0.0 1.0 0.00 0.00 0.00 47 1016.8
20260504023019 62 184 1.0 4.0 0.00 0.00 0.00 56 1006.1
20260504022509 62 168 1.0 5.0 0.00 0.00 0.00 55 1006.1
20260504022007 63 207 2.0 5.0 0.00 0.00 0.00 54 1006.1
20260504021622 67 139 0.0 0.0 0.00 0.00 0.00 45 1016.9
20260504021520 63 166 1.0 6.0 0.00 0.00 0.00 54 1006.1
20260504021006 63 194 1.0 6.0 0.00 0.00 0.00 54 1006.1
20260504020508 63 172 2.0 5.0 0.00 0.00 0.00 53 1006.0
20260504020024 63 188 1.0 5.0 0.00 0.00 0.00 53 1005.9
20260504020019 68 144 0.0 1.0 0.00 0.00 0.00 43 1016.6
20260504015506 64 226 2.0 8.0 0.00 0.00 0.00 53 1005.9
20260504015005 64 215 3.0 8.0 0.00 0.00 0.00 52 1005.8
20260504014616 69 148 0.0 1.0 0.00 0.00 0.00 40 1016.4
20260504014510 64 219 3.0 7.0 0.00 0.00 0.00 52 1005.7
20260504014004 64 74 3.0 6.0 0.00 0.00 0.00 51 1005.7
20260504013506 65 178 2.0 8.0 0.00 0.00 0.00 51 1005.6
20260504013021 65 170 2.0 8.0 0.00 0.00 0.00 50 1005.6
20260504013018 70 148 0.0 2.0 0.00 0.00 0.00 38 1016.3
20260504012505 65 220 3.0 9.0 0.00 0.00 0.00 50 1005.6
20260504012007 66 172 4.0 9.0 0.00 0.00 0.00 49 1005.5
20260504011519 66 228 3.0 8.0 0.00 0.00 0.00 48 1005.5
20260504011006 66 183 3.0 8.0 0.00 0.00 0.00 48 1005.5
20260504010512 67 196 2.0 7.0 0.00 0.00 0.00 48 1005.4
20260504010022 67 196 1.0 8.0 0.00 0.00 0.00 47 1005.4
20260504010010 72 162 0.0 1.0 0.00 0.00 0.00 34 1016.4
20260504005508 68 214 3.0 8.0 0.00 0.00 0.00 46 1005.4
20260504005007 68 200 3.0 8.0 0.00 0.00 0.00 46 1005.5
20260504004611 73 129 0.0 3.0 0.00 0.00 0.00 31 1016.3
20260504004530 68 193 2.0 7.0 0.00 0.00 0.00 45 1005.5
20260504004003 69 215 3.0 11.0 0.00 0.00 0.00 44 1005.5
20260504003503 69 194 2.0 11.0 0.00 0.00 0.00 44 1005.5
20260504003013 69 212 3.0 8.0 0.00 0.00 0.00 43 1005.5
20260504003006 75 164 1.0 5.0 0.00 0.00 0.00 28 1016.3
20260504002505 69 159 3.0 9.0 0.00 0.00 0.00 43 1005.5
20260504002005 69 156 1.0 13.0 0.00 0.00 0.00 42 1005.5
20260504001518 70 253 6.0 13.0 0.00 0.00 0.00 42 1005.6
20260504001502 77 183 1.0 8.0 0.00 0.00 0.00 27 1016.5
20260504001004 70 200 5.0 10.0 0.00 0.00 0.00 42 1005.5
20260504000506 70 276 4.0 10.0 0.00 0.00 0.00 41 1005.6
20260504000130 78 122 3.0 8.0 0.00 0.00 0.00 27 1016.5
20260504000049 70 234 3.0 16.0 0.00 0.00 0.00 42 1005.5
20260503235509 70 223 5.0 16.0 0.00 0.00 0.00 41 1005.5
20260503235008 70 198 7.0 15.0 0.00 0.00 0.00 41 1005.5
20260503234556 78 150 1.0 6.0 0.00 0.00 0.00 24 1016.7
20260503234526 70 242 6.0 15.0 0.00 0.00 0.00 41 1005.5
20260503234008 70 220 5.0 15.0 0.00 0.00 0.00 41 1005.5
20260503233507 70 234 5.0 15.0 0.00 0.00 0.00 41 1005.5
20260503233057 79 143 3.0 8.0 0.00 0.00 0.00 23 1016.7
20260503233010 70 227 7.0 15.0 0.00 0.00 0.00 40 1005.5
20260503232504 70 213 4.0 17.0 0.00 0.00 0.00 41 1005.6
20260503232004 71 232 6.0 18.0 0.00 0.00 0.00 40 1005.6
20260503231552 79 179 3.0 12.0 0.00 0.00 0.00 22 1016.7
20260503231516 71 209 9.0 18.0 0.00 0.00 0.00 39 1005.6
20260503231006 71 194 4.0 13.0 0.00 0.00 0.00 40 1005.7
20260503230506 71 178 6.0 14.0 0.00 0.00 0.00 40 1005.8
20260503230054 80 129 0.0 7.0 0.00 0.00 0.00 23 1017.0
20260503230019 71 182 6.0 21.0 0.00 0.00 0.00 39 1005.9
20260503225508 71 192 6.0 21.0 0.00 0.00 0.00 39 1005.9
20260503225009 70 171 5.0 14.0 0.00 0.00 0.00 40 1006.0
20260503224544 81 173 2.0 6.0 0.00 0.00 0.00 19 1016.9
20260503224525 70 188 6.0 13.0 0.00 0.00 0.00 40 1006.0
20260503224006 70 204 6.0 13.0 0.00 0.00 0.00 40 1006.1
20260503223507 70 231 5.0 14.0 0.00 0.00 0.00 40 1006.0
20260503223042 81 178 2.0 8.0 0.00 0.00 0.00 18 1017.0
20260503223036 70 246 7.0 17.0 0.00 0.00 0.00 39 1006.2
20260503222506 70 185 6.0 17.0 0.00 0.00 0.00 39 1006.2
20260503222011 70 232 4.0 15.0 0.00 0.00 0.00 40 1006.1
20260503221539 82 129 3.0 8.0 0.00 0.00 0.00 18 1017.2
20260503221512 70 236 4.0 15.0 0.00 0.00 0.00 40 1006.3
20260503221004 69 156 5.0 13.0 0.00 0.00 0.00 40 1006.2
20260503220506 69 157 6.0 14.0 0.00 0.00 0.00 40 1006.4
20260503220036 82 156 3.0 8.0 0.00 0.00 0.00 18 1017.4
20260503220018 69 134 7.0 23.0 0.00 0.00 0.00 40 1006.5
20260503215506 69 150 7.0 23.0 0.00 0.00 0.00 40 1006.4
20260503215006 69 202 9.0 23.0 0.00 0.00 0.00 40 1006.5
20260503214532 83 159 0.0 4.0 0.00 0.00 0.00 19 1017.7
20260503214524 69 219 9.0 20.0 0.00 0.00 0.00 40 1006.7
20260503214010 69 209 7.0 14.0 0.00 0.00 0.00 41 1006.6
20260503213516 68 187 6.0 15.0 0.00 0.00 0.00 41 1006.7
20260503213030 82 154 1.0 8.0 0.00 0.00 0.00 18 1017.9
20260503213025 68 198 8.0 18.0 0.00 0.00 0.00 40 1006.8
20260503212507 68 177 6.0 18.0 0.00 0.00 0.00 40 1006.9
20260503212012 68 107 6.0 20.0 0.00 0.00 0.00 41 1006.9
20260503211527 82 144 4.0 7.0 0.00 0.00 0.00 17 1018.2
20260503211014 67 165 5.0 16.0 0.00 0.00 0.00 40 1007.1
20260503210504 67 204 7.0 16.0 0.00 0.00 0.00 41 1007.2
20260503210021 83 205 0.0 6.0 0.00 0.00 0.00 18 1018.5
20260503210014 66 184 6.0 21.0 0.00 0.00 0.00 41 1007.2
20260503205508 66 213 9.0 20.0 0.00 0.00 0.00 41 1007.3
20260503205007 66 222 7.0 19.0 0.00 0.00 0.00 41 1007.4
20260503204522 65 161 9.0 19.0 0.00 0.00 0.00 41 1007.5
20260503204520 82 216 1.0 5.0 0.00 0.00 0.00 20 1018.7
20260503204006 65 203 9.0 17.0 0.00 0.00 0.00 41 1007.7
20260503203509 65 207 6.0 17.0 0.00 0.00 0.00 41 1007.8
20260503203038 65 169 4.0 16.0 0.00 0.00 0.00 41 1007.8
20260503203014 83 113 0.0 4.0 0.00 0.00 0.00 20 1018.9
20260503202510 65 206 7.0 15.0 0.00 0.00 0.00 41 1008.0
20260503202013 66 177 5.0 18.0 0.00 0.00 0.00 42 1008.0
20260503201533 66 183 7.0 18.0 0.00 0.00 0.00 41 1008.2
20260503201513 83 121 0.0 5.0 0.00 0.00 0.00 19 1019.0
20260503201006 66 194 6.0 18.0 0.00 0.00 0.00 42 1008.2
20260503200508 65 204 7.0 18.0 0.00 0.00 0.00 43 1008.2
20260503200028 65 173 5.0 17.0 0.00 0.00 0.00 45 1008.2
20260503200008 83 210 0.0 5.0 0.00 0.00 0.00 20 1019.6
20260503195511 64 350 4.0 25.0 0.00 0.00 0.00 45 1008.5
20260503195006 64 207 10.0 26.0 0.00 0.00 0.00 45 1008.6
20260503194516 64 207 12.0 26.0 0.00 0.00 0.00 45 1008.7
20260503194504 83 143 0.0 4.0 0.00 0.00 0.00 20 1019.8
20260503194005 64 154 8.0 22.0 0.00 0.00 0.00 46 1008.7
20260503193506 64 243 7.0 14.0 0.00 0.00 0.00 49 1008.7
20260503193008 63 235 4.0 15.0 0.00 0.00 0.00 50 1008.7
20260503193001 83 189 0.0 6.0 0.00 0.00 0.00 19 1020.0
20260503192503 63 194 5.0 16.0 0.00 0.00 0.00 50 1008.8
20260503192002 63 171 8.0 16.0 0.00 0.00 0.00 50 1008.9
20260503191558 83 223 0.0 3.0 0.00 0.00 0.00 19 1020.1
20260503191507 62 207 5.0 18.0 0.00 0.00 0.00 52 1008.8
20260503191004 62 199 6.0 18.0 0.00 0.00 0.00 52 1008.9
20260503190507 61 198 9.0 18.0 0.00 0.00 0.00 53 1009.1
20260503190156 83 160 1.0 7.0 0.00 0.00 0.00 19 1020.3
20260503190012 61 205 6.0 13.0 0.00 0.00 0.00 54 1009.2
20260503185503 60 172 5.0 12.0 0.00 0.00 0.00 55 1009.3
20260503185003 60 155 5.0 15.0 0.00 0.00 0.00 54 1009.4
20260503184600 82 153 0.0 4.0 0.00 0.00 0.00 24 1020.8
20260503184517 60 22 5.0 15.0 0.00 0.00 0.00 54 1009.6
20260503184004 59 178 4.0 15.0 0.00 0.00 0.00 55 1009.7
20260503183507 59 90 3.0 15.0 0.00 0.00 0.00 55 1009.8
20260503183046 83 182 0.0 7.0 0.00 0.00 0.00 22 1021.1
20260503183025 59 185 4.0 13.0 0.00 0.00 0.00 57 1009.8
20260503182459 58 161 5.0 12.0 0.00 0.00 0.00 57 1009.9
20260503182002 58 273 3.0 9.0 0.00 0.00 0.00 58 1010.0
20260503181544 83 194 0.0 1.0 0.00 0.00 0.00 25 1021.3
20260503181505 58 169 4.0 11.0 0.00 0.00 0.00 59 1010.1
20260503181003 57 169 3.0 11.0 0.00 0.00 0.00 60 1010.2
20260503180505 57 209 2.0 11.0 0.00 0.00 0.00 61 1010.3
20260503180051 82 214 2.0 6.0 0.00 0.00 0.00 20 1021.6
20260503180019 57 171 3.0 11.0 0.00 0.00 0.00 62 1010.4
20260503175504 56 174 3.0 13.0 0.00 0.00 0.00 63 1010.7
20260503175005 56 98 3.0 13.0 0.00 0.00 0.00 63 1011.1
20260503174542 82 208 0.0 2.0 0.00 0.00 0.00 24 1021.8
20260503174516 56 178 4.0 9.0 0.00 0.00 0.00 63 1011.3
20260503174007 56 177 4.0 14.0 0.00 0.00 0.00 64 1011.6
20260503173507 56 188 5.0 14.0 0.00 0.00 0.00 64 1011.7
20260503173036 56 188 4.0 10.0 0.00 0.00 0.00 67 1012.0
20260503172509 55 175 4.0 10.0 0.00 0.00 0.00 68 1012.1
20260503172010 55 180 1.0 11.0 0.00 0.00 0.00 67 1012.3
20260503171533 55 167 7.0 13.0 0.00 0.00 0.00 67 1012.4
20260503171531 80 230 1.0 4.0 0.00 0.00 0.00 26 1022.3
20260503171003 54 194 6.0 16.0 0.00 0.00 0.00 68 1012.4
20260503170503 54 135 5.0 16.0 0.00 0.00 0.00 69 1012.5
20260503151007 55 192 7.0 16.0 0.00 0.00 0.00 57 1013.5
20260503150507 54 238 8.0 16.0 0.00 0.00 0.00 57 1013.4
20260503131003 49 175 5.0 13.0 0.00 0.00 0.00 60 1014.3
20260503130503 49 221 4.0 14.0 0.00 0.00 0.00 61 1014.4
20260503110503 47 184 5.0 11.0 0.00 0.00 0.00 61 1013.9
20260503090503 46 211 1.0 6.0 0.00 0.00 0.00 60 1014.5
20260503081519 46 192 0.0 7.0 0.00 0.00 0.00 58 1014.7
20260503081517 54 123 0.0 0.0 0.00 0.00 0.00 52 1021.4
20260503081006 46 192 1.0 5.0 0.00 0.00 0.00 58 1014.7
20260503080503 46 218 1.0 6.0 0.00 0.00 0.00 58 1014.6
20260503072509 46 196 2.0 6.0 0.00 0.00 0.00 57 1014.9
20260503072004 46 205 1.0 6.0 0.00 0.00 0.00 56 1014.9
20260503071514 46 195 2.0 6.0 0.00 0.00 0.00 56 1015.0
20260503071003 46 197 1.0 5.0 0.00 0.00 0.00 56 1015.0
20260503070503 46 196 1.0 5.0 0.00 0.00 0.00 56 1015.0
20260503060107 55 123 0.0 1.0 0.00 0.00 0.00 52 1022.1
20260503055002 47 184 1.0 4.0 0.00 0.00 0.00 55 1015.6
20260503054541 55 124 2.0 3.0 0.00 0.00 0.00 53 1022.1
20260503054517 47 184 1.0 4.0 0.00 0.00 0.00 56 1015.7
20260503054004 47 201 0.0 4.0 0.00 0.00 0.00 55 1015.8
20260503053504 47 202 1.0 4.0 0.00 0.00 0.00 55 1015.8
20260503053038 55 121 0.0 0.0 0.00 0.00 0.00 54 1022.1
20260503053013 47 157 0.0 4.0 0.00 0.00 0.00 55 1015.8
20260503052505 47 201 1.0 4.0 0.00 0.00 0.00 55 1015.9
20260503052004 47 175 1.0 3.0 0.00 0.00 0.00 55 1015.9
20260503051534 56 121 0.0 0.0 0.00 0.00 0.00 50 1022.0
20260503051521 47 180 1.0 7.0 0.00 0.00 0.00 55 1016.0
20260503051007 47 207 1.0 7.0 0.00 0.00 0.00 54 1016.0
20260503050503 47 186 1.0 4.0 0.00 0.00 0.00 55 1016.0
20260503050034 56 121 0.0 2.0 0.00 0.00 0.00 50 1021.9
20260503050016 47 189 0.0 4.0 0.00 0.00 0.00 54 1016.1
20260503045506 48 214 0.0 4.0 0.00 0.00 0.00 54 1016.1
20260503045004 48 194 1.0 4.0 0.00 0.00 0.00 54 1016.1
20260503044525 48 190 0.0 4.0 0.00 0.00 0.00 53 1016.1
20260503044523 56 121 0.0 1.0 0.00 0.00 0.00 52 1021.7
20260503044006 48 202 0.0 4.0 0.00 0.00 0.00 53 1016.0
20260503043503 48 208 1.0 3.0 0.00 0.00 0.00 53 1016.0
20260503043033 55 121 0.0 0.0 0.00 0.00 0.00 54 1021.7
20260503043016 48 203 0.0 4.0 0.00 0.00 0.00 53 1016.0
20260503042504 48 200 1.0 4.0 0.00 0.00 0.00 53 1016.1
20260503042008 49 193 0.0 5.0 0.00 0.00 0.00 52 1016.1
20260503041514 49 194 0.0 5.0 0.00 0.00 0.00 52 1016.1
20260503041511 56 122 0.0 0.0 0.00 0.00 0.00 52 1021.8
20260503041004 49 190 2.0 5.0 0.00 0.00 0.00 52 1016.1
20260503040506 49 186 1.0 3.0 0.00 0.00 0.00 52 1016.2
20260503040017 49 211 1.0 4.0 0.00 0.00 0.00 52 1016.1
20260503040005 56 121 0.0 0.0 0.00 0.00 0.00 53 1021.8